Home   Weather   Illnau-Effretikon   Past weeks

Flag for Switzerland Past Weather in Illnau-Effretikon, Zurich, Switzerland — Yesterday and Last 2 Weeks

Now
31 °F

Chilly.


Feels Like: 31 °F
Forecast: 20 / 42 °F
Wind: 1 mph from Northeast

Location: Zuerich-Fluntern

Current Time: Dec 5, 2016 at 9:52:12 pm

Latest Report: Dec 5, 2016 at 9:00 pm


Visibility: N/A

Pressure: 30.45 "Hg (28.55 "Hg at 514m altitude)

Humidity: 97%

Dew Point: 30 °F

Location of Illnau-EffretikonLocation

Past Weather in Illnau-Effretikon — Graph

°F

Illnau-Effretikon Temperature Yesterday

Maximum temperature yesterday: 39 °F (at 3:00 pm)
Minimum temperature yesterday: 29 °F (at 10:00 pm)
Average temperature yesterday: 33 °F

High & Low Weather Summary for the Past Weeks

 TemperatureHumidityPressure
High63 °F (Nov 22, 12:00 am)100% (Dec 1, 6:00 am)30.65 "Hg (Dec 1, 6:00 am)
Low25 °F (Nov 29, 8:00 am)33% (Nov 21, 11:00 pm)29.58 "Hg (Nov 21, 12:00 pm)
Average39 °F82%30.15 "Hg
* Reported Nov 20 7:00 pm — Dec 5 7:00 pm, Illnau-Effretikon, Weather by CustomWeather, © 2016

Note: Actual official high and low records may vary slightly from our data, if they occured in-between our weather recording intervals... More about our weather records

Advertising

Illnau-Effretikon Weather History for the Previous 24 Hours

Scroll right to see more
 ConditionsComfort  
Time TempWeatherWind HumidityBarometerVisibility
7:00 pm
Mon, Dec 5
31 °FPassing clouds.No wind98%30.44 "HgN/A
6:00 pm31 °FChilly.1 mph95%30.43 "HgN/A
5:00 pm31 °FChilly.No wind93%30.42 "HgN/A
4:00 pm33 °FChilly.1 mph91%30.41 "HgN/A
3:00 pm33 °FChilly.2 mph89%30.40 "HgN/A
2:00 pm33 °FChilly.2 mph85%30.40 "HgN/A
1:00 pm32 °FOvercast.1 mph89%30.42 "HgN/A
12:00 pm31 °FChilly.1 mph92%30.43 "HgN/A
11:00 am31 °FChilly.2 mph93%30.44 "HgN/A
10:00 am30 °FChilly.2 mph95%30.43 "HgN/A
9:00 am30 °FChilly.2 mph98%30.42 "HgN/A
8:00 am29 °FChilly.1 mph100%30.41 "HgN/A
7:00 am29 °FChilly.1 mph100%30.41 "HgN/A
6:00 am28 °FChilly.1 mph99%30.40 "HgN/A
5:00 am28 °FChilly.2 mph98%30.41 "HgN/A
4:00 am29 °FChilly.1 mph96%30.40 "HgN/A
3:00 am29 °FChilly.No wind98%30.40 "HgN/A
2:00 am29 °FChilly.1 mph100%30.40 "HgN/A
1:00 am29 °FChilly.3 mph98%30.40 "HgN/A
12:00 am29 °FChilly.6 mph100%30.40 "HgN/A
11:00 pm
Sun, Dec 4
29 °FChilly.5 mph96%30.39 "HgN/A
10:00 pm29 °FChilly.6 mph93%30.38 "HgN/A
9:00 pm30 °FChilly.7 mph92%30.37 "HgN/A
Weather by CustomWeather, © 2016

See weather overviewHow to use our weather pages